Location: Winnipeg
(49.8830°N, 97.1670°W)
Time: 18:21:26
(UTC-06:00)

ISS - Pass Details

Date: 02 February 2021
Orbit: 417 x 422 km, 51.6° (Epoch: 06 March)

Event Time Altitude Azimuth Distance (km) Brightness Sun altitude
Rises 20:27:54 0° 279° (W) 2,376 1.3 -29.4°
Reaches altitude 10° 20:31:19 10° 242° (WSW) 1,506 -0.4 -30.0°
Enters shadow 20:31:27 10° 240° (WSW) 1,491 -0.4 -30.0°
